Location: Newark
(25.0000°N, 73.5000°E)
Time: 02:04:10
(UTC+00:00)

RS-15 - Pass Details

Date: 28 February 2020
Orbit: 1898 x 2146 km, 64.8° (Epoch: 08 April)

Event Time Altitude Azimuth Distance (km) Brightness Sun altitude
Rises 21:06:13 0° 349° (N) 5,320 10.4 -59.2°
Reaches altitude 10° 21:12:11 10° 14° (NNE) 4,359 10.0 -58.0°
Maximum altitude 21:17:29 14° 43° (NE) 4,066 10.0 -56.9°
Drops below altitude 10° 21:22:51 10° 72° (ENE) 4,446 10.3 -55.8°
Sets 21:28:57 0° 96° (E) 5,501 10.9 -54.5°
